Welcome to the New NWS' Forecast!
Most changes are behind the scenes, but click here for differences you might notice.
Latest weather observations around

Troy, Troy Municipal Airport (KTOI)

Using English Units (Switch to International System of Units)
Date/ Time (CDT) Wind (mph) Vis. (mi) Weather Sky Cond. Temp (°F) Rel. Humidity Wind Chill (°F) Heat Index (°F) Pressure Precip. (in)
Air Dwpt 6 hour Altimeter (inHg) Sea level (inHg) 1 hr 3 hr 6 hr
Max Min
Oct 21 13:53 N 10 10 Clear CLR 63 37     38%     30.19 30.18      
Oct 21 12:53 NE 11 10 Clear CLR 61 36     39%     30.21 30.2      
Oct 21 11:53 NNE 13 10 Clear CLR 60 35     39%     30.24 30.23      
Oct 21 10:53 NNE 9 10 Clear CLR 58 36     44%     30.24 30.23      
Oct 21 09:53 NNE 13 10 Clear CLR 56 38     51%     30.25 30.24      
Oct 21 08:53 NNE 15 10 Clear CLR 53 39     59%     30.25 30.24      
Oct 21 07:53 N 9 10 Clear CLR 52 45     77%     30.23 30.22      
Oct 21 06:53 N 7 10 Clear CLR 51 48     89%     30.19 30.18      
Oct 21 05:53 N 8 10 Clear CLR 52 50     93%     30.16 30.15      
Oct 21 04:53 NNW 6 10 Clear CLR 53 51     93%     30.14 30.13      
Oct 21 03:53 Calm 6 Fog/Mist CLR 52 51     97%     30.13 30.12      
Oct 21 02:53 Calm 10 Clear CLR 55 54     96%     30.13 30.12      
Oct 21 01:53 NW 5 10 Clear CLR 56 55     97%     30.13 30.12      
Oct 21 00:53 NNW 6 10 Clear CLR 57 55     93%     30.13 30.12      
Oct 20 23:53 NNW 7 10 Clear CLR 59 57     93%     30.14 30.13      
Oct 20 22:53 NNW 7 10 Clear CLR 61 58     90%     30.14 30.13      
Oct 20 22:02 NNW 10 10 Mostly Clear FEW013 62 60     93%     30.13        
Oct 20 21:53 NNW 6 10 Mostly Cloudy SCT013 BKN019 63 60     90%     30.12 30.11      
Oct 20 20:53 NNW 7 10 Mostly Cloudy BKN085 65 61     87%     30.09 30.08      
Oct 20 19:53 NNW 8 10 Cloudy FEW017 OVC120 67 62     84%     30.08 30.06      
Oct 20 18:53 NNW 9 10 Cloudy FEW022 BKN036 OVC080 69 65     87%     30.06 30.04     2
Oct 20 18:43 NW 11 10 Cloudy SCT022 BKN030 OVC100 69 65     87%     30.05        
Oct 20 17:53 WNW 6 10 Cloudy SCT017 BKN028 OVC110 70 66     87%     30.03 30.01      
Oct 20 16:53 NW 7 10 Clear CLR 73 66     79%   74 30 29.99      
Oct 20 15:53 NNW 6 10 Mostly Clear FEW090 72 67     84%   73 30 29.99   2  
Oct 20 14:53 NNW 10 10 Mostly Cloudy FEW009 SCT046 BKN060 72 69     91%   73 30.01 30 0    
Oct 20 14:27 NW 11 10 Light Rain FEW007 BKN032 OVC048 71 70     96%   72 30.02   0    
Oct 20 14:21 NW 13 2.5 Light Rain and Fog/Mist SCT012 BKN032 OVC050 71 70     96%   72 30.02   0    
Oct 20 14:19 NW 13 1.25 Light Rain and Fog/Mist SCT012 BKN040 OVC055 71 70     96%   72 30.02   0    
Oct 20 14:12 WNW 8 0.75 Heavy Rain and Fog/Mist FEW008 BKN040 OVC050 70 70     100%     30.03   0    
Oct 20 13:53 WNW 7 1.25 Heavy Rain and Fog/Mist FEW008 BKN036 OVC060 70 69     97%     30.02 30.01 1    
Oct 20 13:49 WNW 11 1 Heavy Rain and Fog/Mist SCT008 SCT018 OVC032 70 70     100%     30.03   1    
Oct 20 13:42 7 1 Heavy Rain and Fog/Mist FEW006 SCT011 OVC018 71 69     93%   72 30.03   1    
Oct 20 13:38 WNW 11 0.5 Heavy Rain and Fog FEW006 FEW011 OVC018 71 70     96%   72 30.03   1    
Oct 20 13:25 WNW 7 0.25 Heavy Rain and Fog SCT010 BKN014 OVC025 72 71     97%   73 30.02   1    
Oct 20 13:13 NW 14 0.5 Heavy Rain and Fog FEW010 BKN023 OVC080 75 72     90%   76 30.03   0    
Oct 20 13:11 NW 15 1 Heavy Rain FEW010 BKN023 OVC080 77 71     82%   78 30.03   0    
Oct 20 13:09 WNW 8 2.5 Light Rain BKN023 BKN031 OVC080 78 70     76%   79 30.03   0    
Oct 20 12:53 W 8 10 Mostly Cloudy FEW027 SCT033 BKN046 79 70     74%   82 30.02 30.01      
Oct 20 12:36 WNW 7 10 Mostly Cloudy SCT027 BKN035 80 70     71%   83 30.03        
Oct 20 12:29 SW 9 10 Mostly Cloudy BKN027 BKN036 80 70     71%   83 30.03        
Oct 20 11:53 W 9 10 Mostly Cloudy FEW025 BKN060 BKN070 79 69     72%   80 30.06 30.04      
Oct 20 11:40 W 8 10 Mostly Cloudy FEW022 SCT027 BKN060 79 69     72%   80 30.06        
Oct 20 11:23 WNW 10 10 Mostly Cloudy SCT022 BKN029 BKN060 79 70     74%   82 30.07        
Oct 20 10:53 W 8 10 Mostly Clear FEW016 FEW021 78 70     76%   79 30.08 30.06      
Oct 20 10:24 SW 9 10 Partly Cloudy SCT016 77 71     82%   78 30.08        
Oct 20 10:13 WSW 8 10 Mostly Cloudy SCT014 BKN019 77 71     82%   78 30.08        
Oct 20 09:53 WSW 7 10 Mostly Cloudy BKN014 76 71     85%   77 30.07 30.06      
Oct 20 09:46 SW 7 10 Mostly Cloudy BKN014 76 71     85%   77 30.07        
Oct 20 09:15 SW 6 10 Partly Cloudy FEW008 SCT013 75 71     88%   76 30.08        
Oct 20 08:53 SSW 6 10 Mostly Cloudy BKN012 75 72     90%   76 30.07 30.05      
Oct 20 08:36 SW 8 10 Mostly Cloudy BKN013 75 73     94%   77 30.07        
Oct 20 08:26 SW 7 10 Mostly Cloudy BKN009 BKN012 74 73     97%   76 30.07        
Oct 20 07:53 WSW 5 5 Fog/Mist OVC006 72 72     100%   74 30.06 30.05      
Oct 20 07:44 SW 3 5 Fog/Mist OVC006 72 72     100%   74 30.06        
Oct 20 07:20 SSW 5 5 Fog/Mist OVC007 72 72     100%   74 30.05        
Oct 20 07:03 SW 5 5 Fog/Mist OVC006 72        %     30.05        
Oct 20 06:53 SW 7 7 Cloudy OVC005 72        %     30.05 30.04      
Oct 20 06:39 SW 7 8 Cloudy OVC005 72 72     100%   74 30.06        
Oct 20 06:30 SW 8 7 Cloudy OVC003 72 72     100%   74 30.06        
Oct 20 06:20 WSW 6 4 Fog/Mist OVC002 72 72     100%   74 30.06        
Oct 20 06:10 SW 6 2 Fog/Mist OVC002 72 72     100%   74 30.06        
Oct 20 06:07 SW 6 1.5 Fog/Mist OVC002 72 72     100%   74 30.06        
Oct 20 05:53 WSW 5 1 Fog/Mist OVC002 72 72     100%   74 30.06 30.04      
Oct 20 05:48 WSW 6 1 Fog/Mist OVC003 72 72     100%   73 30.06        
Oct 20 05:43 SW 5 1.5 Fog/Mist OVC003 72 72     100%   74 30.06        
Oct 20 05:37 WSW 6 2.5 Fog/Mist OVC003 72 72     100%   74 30.06        
Oct 20 05:29 WSW 7 3 Fog/Mist OVC002 72 72     100%   74 30.06        
Oct 20 05:19 WSW 7 2 Fog/Mist OVC002 72 72     100%   74 30.06        
Oct 20 05:16 WSW 8 1.5 Fog/Mist OVC002 72 72     100%   74 30.06        
Oct 20 05:08 SW 3 1 Fog/Mist OVC002 71 71     100%   73 30.05        
Oct 20 04:53 SW 3 0.25 Fog VV002 71 71     100%   73 30.06 30.04      
Oct 20 03:57 Calm 0.5 Fog OVC002 70 69     97%     30.06        
Oct 20 03:53 Calm 1 Fog/Mist OVC002 70 70     100%     30.06 30.04      
Oct 20 03:50 Calm 1.5 Fog/Mist OVC002 70 70     100%     30.06        
Oct 20 03:47 Calm 2 Fog/Mist OVC002 70 70     100%     30.06        
Oct 20 03:37 Calm 4 Fog/Mist OVC003 70 69     97%     30.06        
Oct 20 03:29 Calm 4 Fog/Mist OVC005 70 69     97%     30.06        
Oct 20 03:14 Calm 7 Cloudy OVC006 69 69     100%     30.07        
Oct 20 02:53 Calm 5 Fog/Mist BKN007 BKN070 BKN100 69 68     96%     30.07 30.06      
Oct 20 02:51 Calm 5 Fog/Mist SCT007 BKN070 BKN100 70 68     94%     30.07        
Oct 20 01:53 Calm 6 Fog/Mist SCT070 SCT095 67 67     100%     30.09 30.08      
Oct 20 00:53 Calm 6 Fog/Mist FEW042 67 67     100%     30.11 30.09      
Oct 20 00:14 Calm 7 Partly Cloudy SCT005 69 68     96%     30.11        
Oct 20 00:07 Calm 7 Mostly Cloudy BKN005 69 68     96%     30.11        
Oct 19 23:53 Calm 6 Fog/Mist FEW001 BKN004 68 68     100%     30.12 30.1      
Oct 19 23:49 Calm 6 Fog/Mist BKN004 68 68     100%     30.12        
Oct 19 23:40 Calm 7 Mostly Cloudy SCT004 BKN040 68 68     100%     30.12        
Oct 19 22:53 Calm 5 Fog/Mist BKN046 68 67     96%     30.14 30.12      
Oct 19 21:53 Calm 8 Clear CLR 70 69     97%     30.13 30.12      
Oct 19 20:53 Calm 5 Fog/Mist CLR 70 70     100%     30.13 30.12      
Oct 19 19:53 Calm 7 Clear CLR 71 70     96%   72 30.14 30.12      
Oct 19 18:53 Calm 10 Clear CLR 73 71     94%   74 30.13 30.11      
Oct 19 17:53 Calm 10 Clear CLR 77 72     84%   78 30.13 30.12      
Oct 19 16:53 Calm 10 Clear CLR 81 70     69%   84 30.13 30.12      
Oct 19 15:53 S 7 10 Mostly Clear FEW035 81 70     69%   84 30.14 30.13      
Oct 19 14:53 W 6 10 Mostly Cloudy FEW025 SCT036 BKN048 80 70     71%   83 30.15 30.14      
Oct 19 14:04 S 3 10 Cloudy SCT022 OVC043 79 70     74%   82 30.18        
Oct 19 13:53 Calm 10 Mostly Cloudy BKN022 BKN043 80 70     71%   83 30.18 30.17      
Oct 19 13:42 Calm 10 Mostly Cloudy SCT020 BKN043 78 70     76%   79 30.19        
Oct 19 12:53 3 10 Mostly Cloudy BKN017 78 69     74%   79 30.21 30.2      
Oct 19 11:53 7 10 Cloudy OVC016 76 69     79%   77 30.24 30.23      
Oct 19 10:53 SSE 8 10 Cloudy OVC017 74 67     79%   75 30.26 30.25      
Oct 19 10:12 ESE 8 10 Mostly Cloudy BKN016 75 67     76%   76 30.27        
Oct 19 09:53 SE 7 10 Mostly Clear FEW014 74 66     76%   75 30.27 30.26      
Oct 19 08:53 E 5 10 Cloudy SCT011 OVC036 68 63     84%     30.27 30.27      
Oct 19 08:45 Calm 10 Cloudy SCT011 OVC036 68 63     84%     30.27        
Oct 19 08:35 E 5 10 Cloudy BKN011 OVC036 67 62     84%     30.27        
Oct 19 07:53 ENE 5 10 Mostly Cloudy BKN036 65 61     87%     30.26 30.25      
Oct 19 06:53 Calm 10 Cloudy FEW022 SCT036 OVC050 64 61     90%     30.25 30.24      
Oct 19 06:45 E 3 10 Mostly Cloudy FEW022 BKN036 BKN050 64 61     90%     30.25        
Oct 19 05:53 ENE 3 10 Cloudy BKN020 OVC036 64 60     87%     30.25 30.24      
Oct 19 05:50 E 3 10 Cloudy BKN020 OVC036 64 61     88%     30.25        
Oct 19 05:38 ENE 3 10 Cloudy SCT020 BKN035 OVC048 63 60     90%     30.25        
Oct 19 04:53 NE 5 10 Cloudy OVC016 63 59     87%     30.24 30.23      
Oct 19 04:43 NE 5 10 Cloudy OVC015 63 59     87%     30.24        
Oct 19 03:53 ENE 3 10 Cloudy OVC013 62 58     86%     30.24 30.23      
Oct 19 03:42 ENE 5 10 Clear   61 57     87%     30.24        
Oct 19 02:53 ENE 3 10 Clear   61 57     87%     30.25 30.23      
Oct 19 01:53 NE 3 10 Clear CLR 62 57     84%     30.26 30.25      
Oct 19 00:53 NE 3 10 Clear CLR 62 57     84%     30.26 30.24      
Oct 18 23:53 NE 5 10 Clear CLR 62 58     86%     30.27 30.25      
Oct 18 22:53 Calm 10 Clear CLR 61 59     93%     30.28 30.27      
Oct 18 21:53 Calm 10 Clear CLR 62 60     93%     30.29 30.28      
Oct 18 20:53 Calm 10 Clear CLR 62 60     93%     30.28 30.27      
Oct 18 19:53 Calm 10 Clear CLR 65 60     84%     30.28 30.27      
Oct 18 18:53 N 3 10 Clear CLR 68 59     73%     30.26 30.25      
Oct 18 17:53 N 3 10 Clear CLR 73 58     59%   73 30.25 30.24      
Oct 18 16:53 N 8 10 Clear CLR 78 55     45%   78 30.25 30.24      
Oct 18 15:53 3 10 Clear CLR 79 54     42%   79 30.24 30.23      
Oct 18 14:53 NE 6 10 Clear CLR 78 54     43%   78 30.25 30.24      
Oct 18 13:53 7 10 Clear CLR 78 54     43%   78 30.26 30.25      
Oct 18 12:53 NNE 7 10 Clear CLR 76 54     47%   75 30.28 30.27      
Oct 18 11:53 NE 8 10 Clear CLR 74 53     48%   73 30.31 30.29      
Oct 18 10:53 NNE 7 10 Clear CLR 70 52     53%     30.32 30.3      
Oct 18 09:53 NNE 8 10 Clear CLR 68 52     57%     30.32 30.31      
Oct 18 08:53 NNE 9 10 Clear CLR 64 51     63%     30.32 30.31      
Oct 18 07:53 NNE 6 10 Clear CLR 60 51     72%     30.31 30.3      
Oct 18 06:53 NE 5 10 Clear CLR 56 51     84%     30.29 30.28      
Oct 18 05:53 NNE 6 10 Clear CLR 57 51     81%     30.29 30.28      
Oct 18 04:53 NNE 5 10 Clear CLR 59 50     72%     30.28 30.26      
Oct 18 03:53 NNE 5 10 Clear CLR 60 50     69%     30.27 30.26      
Oct 18 02:53 N 6 10 Clear CLR 61 50     67%     30.26 30.25      
Oct 18 01:53 NNE 7 10 Clear CLR 61 51     70%     30.26 30.25      
Oct 18 00:53 N 5 10 Clear CLR 62 54     75%     30.26 30.25      
Oct 17 23:53 NNE 7 10 Clear CLR 64 52     65%     30.27 30.26      
Oct 17 22:53 NNE 7 10 Clear CLR 66 56     70%     30.27 30.26      
Oct 17 21:53 NNE 9 10 Clear CLR 68 62     81%     30.26 30.25      
Oct 17 20:53 N 10 10 Clear   69 64     84%     30.25 30.24      
Oct 17 19:53 N 7 10 Clear CLR 70 66     87%     30.23 30.22      
Oct 17 18:53 N 6 10 Clear CLR 72 66     82%   73 30.22 30.2      
Oct 17 17:53 N 7 10 Clear CLR 75 67     76%   76 30.19 30.18      
Oct 17 16:53 NNW 6 10 Mostly Clear FEW031 79 67     67%   80 30.18 30.17      
Oct 17 16:34 N 7 10 Cloudy OVC030 77 67     71%   78 30.18        
Oct 17 15:53 N 10 10 Cloudy OVC029 78 67     69%   79 30.18 30.16      
Oct 17 14:53 N 13 10 Cloudy OVC027 78 68     71%   79 30.18 30.16      
Oct 17 14:11 NNW 9 10 Mostly Cloudy BKN028 80 68     67%   83 30.18        
Oct 17 13:53 NNE 6 10 Mostly Clear FEW026 80 68     67%   83 30.18 30.16      
Oct 17 12:53 6 10 Cloudy SCT021 OVC034 78 68     71%   79 30.2 30.19      
Oct 17 11:53 N 10 10 Cloudy OVC016 76 68     76%   77 30.23 30.21      
Oct 17 11:30 N 11 10 Cloudy OVC015 76 68     76%   77 30.22        
Oct 17 10:53 N 7 10 Cloudy OVC013 75 69     82%   76 30.22 30.2      
Oct 17 10:03 N 7 10 Cloudy OVC010 73 69     87%   74 30.21        
Oct 17 09:53 NNE 8 10 Cloudy OVC008 73 69     87%   74 30.21 30.19      
Oct 17 08:53 N 9 9 Cloudy OVC007 71 69     93%   72 30.2 30.19      
Oct 17 08:33 NNE 10 9 Cloudy OVC007 71 69     93%   72 30.2        
Oct 17 07:53 N 7 8 Cloudy OVC006 71 69     93%   72 30.19 30.17      
Oct 17 07:22 N 6 6 Fog/Mist OVC005 70 69     97%     30.18        
Oct 17 06:53 N 8 6 Fog/Mist OVC004 70 69     97%     30.18 30.16      
Oct 17 06:33 N 5 6 Fog/Mist OVC003 70 70     100%     30.17        
Oct 17 06:15 NNW 6 4 Fog/Mist OVC002 70 69     97%     30.17        
Oct 17 06:02 N 6 2 Fog/Mist OVC002 69 69     100%     30.16        
Oct 17 05:57 N 6 1.5 Fog/Mist OVC002 69 69     100%     30.16        
Oct 17 05:53 N 6 1.25 Fog/Mist OVC003 69 69     100%     30.16 30.14      
Oct 17 05:49 N 5 1.75 Fog/Mist OVC003 70 70     100%     30.16        
Oct 17 05:36 NNW 3 6 Fog/Mist OVC003 69 69     100%     30.15        
Oct 17 04:53 Calm 3 Fog/Mist OVC002 70 69     97%     30.14 30.12      
Oct 17 04:24 NE 3 3 Fog/Mist BKN002 70 69     97%     30.13        
Oct 17 04:17 ENE 3 3 Fog/Mist BKN003 70 69     97%     30.13        
Oct 17 03:53 Calm 5 Fog/Mist FEW004 69 69     100%     30.12 30.11      
Oct 17 03:40 Calm 3 Fog/Mist FEW004 69 69     100%     30.13        
Oct 17 03:36 Calm 2 Fog/Mist CLR 68 68     100%     30.12        
Oct 17 03:34 Calm 1.5 Fog/Mist CLR 68 68     100%     30.12        
Oct 17 03:24 Calm 1 Fog/Mist CLR 69 69     100%     30.12        
Oct 17 03:22 Calm 1.5 Fog/Mist CLR 69 69     100%     30.12        
Oct 17 03:14 Calm 2 Fog/Mist CLR 69 69     100%     30.12        
Oct 17 02:53 Calm 7 Clear CLR 71 70     96%   72 30.13 30.11      
Oct 17 01:53 NNW 3 8 Clear CLR 71 70     96%   72 30.13 30.11      
Oct 17 00:53 Calm 8 Clear CLR 72 71     97%   73 30.13 30.11      
Oct 16 22:53 N 3 10 Mostly Clear FEW035 74 72     94%   75 30.14 30.12      
Oct 16 21:53 Calm 6 Fog/Mist FEW049 72 72     100%   74 30.13 30.11      
Oct 16 20:53 Calm 9 Clear CLR 74 73     97%   76 30.12 30.1      
Oct 16 19:53 Calm 10 Clear CLR 75 73     94%   77 30.11 30.09      
Oct 16 18:53 NNW 3 10 Clear   77 73     88%   79 30.09 30.08      
Oct 16 17:53 Calm 10 Clear CLR 80 75     85%   85 30.07 30.06      
Oct 16 16:53 3 10 Mostly Clear FEW037 84 71     65%   89 30.07 30.05      
Oct 16 15:53 SW 7 10 Partly Cloudy FEW041 SCT055 86 71     61%   92 30.07 30.05      
Oct 16 14:53 SW 7 10 Mostly Cloudy FEW039 BKN050 85 69     59%   89 30.07 30.06      
Oct 16 13:53 SSW 6 10 Mostly Clear FEW038 85 70     61%   89 30.08 30.06      
Oct 16 12:53 6 10 Partly Cloudy SCT034 86 72     63%   92 30.1 30.09      
May 15 10:53 NE 8 10 Mostly Cloudy SCT030 SCT045 BKN075 81 66     61%   83 29.99 29.98      
May 15 08:53 E 6 10 Clear CLR 76 67     74%   77 29.98 29.96      
May 15 07:53 E 7 10 Partly Cloudy SCT120 72 67     84%   73 29.98 29.96      
May 14 23:53 Calm 9 Clear CLR 65 64     97%     29.97 29.95      
May 13 06:53 Calm 6 Fog/Mist CLR 63 62     97%     30.11 30.1      
Jun 12 06:39 3 10 Mostly Clear FEW002 71 71     100%   73 30.15        
Jun 12 05:53 Calm 10 Mostly Clear FEW011 70 70     100%     30.14 30.12      
Jun 11 21:53 SSW 3 9 Cloudy OVC100 74 70     87%   75 30.15 30.13 0 0  
Jun 11 20:00 Calm 10 Cloudy OVC070 75 74     96%   77 30.11        
Notice The following observation data may not be complete
Jun 11 07:13   10 Partly Cloudy SCT016          %              
Jun 10 12:53 ESE 9 10 Mostly Cloudy FEW050 BKN075 87 64     46%   88 30.08 30.06      
Jun 10 04:53 Calm 10 Clear CLR 63 63     100%     30.01 30      
Jun 09 15:53   10 Clear CLR 86 60     42%   86 29.93 29.92      
Jun 08 12:53 6 10 Mostly Clear FEW040 81 62     53%   82 29.91 29.89      
Jun 08 09:53 5 10 Clear CLR 73 62     68%   73 29.91 29.9      
Jun 08 07:53 NE 8 10 Clear CLR 68 63     84%     29.9 29.89      
Jun 08 00:53 Calm 10 Clear CLR 68 67     96%     29.84 29.82      
Jun 07 10:53 NE 10 10 Mostly Cloudy BKN019 BKN024 BKN032 79 70     74%   82 29.76 29.74      
Notice The following observation data may not be complete
Jun 06 03:28   8 Partly Cloudy FEW002 SCT015          %              
Jun 05 22:53 Calm 10 Cloudy SCT024 BKN050 OVC095 72 72     100%   74 29.84 29.83      
Jun 05 16:53 S 8 10 Mostly Clear FEW032 81 71     72%   85 29.8 29.78      
Jun 05 15:53 SSE 8 10 Mostly Clear FEW018 79 73     82%   82 29.8 29.78   0  
Jun 05 14:32 S 5 10 Mostly Clear FEW007 75 73     94%   77 29.84   0